Dati Storici

Data ora Umidita' aria (%) Temperatura aria (°C) Rad globale (W/m²) Gonioanemometro (°) Tacoanemometro (m/s) Pioggia (mm)
15-06-2020 21:30 97.7 % 18.122 299.333 0.688 0 0
15-06-2020 21:20 97.7 % 18.378 266.952 0.119 0 0
15-06-2020 21:10 97.6 % 18.387 209.541 1.302 0 0
15-06-2020 21:00 97.2 % 18.621 302.491 1.051 0 0
15-06-2020 20:50 97.3 % 18.657 319.336 0.521 0 0
15-06-2020 20:40 95 % 18.767 188.361 0.368 0 0
15-06-2020 20:30 96.8 % 18.782 70.404 1.116 0 0
15-06-2020 20:20 97.6 % 18.966 277.58 -0.003 0 0
15-06-2020 20:10 96.8 % 19.208 192.306 -0.006 0 0
15-06-2020 20:00 97.6 % 19.214 221.557 10.308 0 0
15-06-2020 19:50 97.7 % 19.214 106.653 -0.002 0 0
15-06-2020 19:40 97.7 % 19.138 289.92 0.364 0 0
15-06-2020 19:30 97.7 % 19.067 239.802 0.457 0 0
15-06-2020 19:20 97.6 % 19.125 73.573 -0.002 0 0
15-06-2020 19:10 97.6 % 19.239 230.243 0.119 0 0
15-06-2020 19:00 97.6 % 19.266 197.506 0.516 0 0
15-06-2020 18:50 94.3 % 19.411 94.05 -0.004 0 0
15-06-2020 18:40 93.8 % 19.302 229.586 -0.006 0 0
15-06-2020 18:30 95.9 % 19.49 214.718 -0.006 0 0
15-06-2020 18:20 95 % 19.448 190.671 -0.007 0 0

I dati sono presentati in modo automatico a scopo informativo. In seguito a verifica i dati possono subire modifiche o essere invalidati e non riportati negli archivi definitivi.